Location: DaVinci Observatory
(43.1080°N, 78.6453°W)
Time: 20:09:27
(UTC-04:00)

Vanguard 1 - Visible Passes

Search period start: 16 October 2017 00:00
Search period end: 26 October 2017 00:00
Orbit: 650 x 3834 km, 34.3° (Epoch: 15 October)

Date Brightness Start Highest point End Pass type
(mag) Time Alt. Az. Time Alt. Az. Time Alt. Az.
16 Oct 12.9 02:24:01 47° SE 02:24:01 47° SE 02:42:06 10° E visible
16 Oct 12.7 04:36:43 44° WSW 04:45:31 67° S 05:08:32 10° E visible
16 Oct 13.2 06:50:01 10° W 07:11:47 58° SSW 07:31:50 10° SE visible
17 Oct 13.8 00:31:04 16° E 00:31:04 16° E 00:34:51 10° E visible
17 Oct 12.7 02:43:46 55° SE 02:43:46 55° SE 03:03:47 10° E visible
17 Oct 12.8 04:56:28 39° WSW 05:06:58 67° S 05:29:51 10° ESE visible
18 Oct 13.7 00:50:49 21° E 00:50:49 21° E 00:57:12 10° E visible
18 Oct 12.6 03:03:32 61° SSE 03:03:32 61° SSE 03:25:25 10° E visible
18 Oct 12.9 05:16:14 33° WSW 05:28:26 65° S 05:51:03 10° ESE visible
19 Oct 13.5 01:10:35 26° E 01:10:35 26° E 01:19:14 10° E visible
19 Oct 12.5 03:23:18 64° S 03:23:55 64° S 03:46:59 10° E visible
19 Oct 13.0 05:36:00 28° W 05:49:50 62° SSW 06:12:06 10° ESE visible
20 Oct 13.3 01:30:23 32° ESE 01:30:23 32° ESE 01:41:05 10° E visible
20 Oct 12.4 03:43:06 63° SSW 03:45:16 66° S 04:08:29 10° ESE visible
20 Oct 13.1 05:55:48 22° W 06:11:09 58° SSW 06:32:58 10° SE visible
21 Oct 13.1 01:50:11 38° ESE 01:50:11 38° ESE 02:02:51 10° E visible
21 Oct 12.4 04:02:54 59° SW 04:06:39 66° S 04:29:54 10° ESE visible
21 Oct 13.2 06:15:37 18° W 06:32:22 52° SSW 06:53:35 10° SE visible
22 Oct 12.9 02:10:02 44° ESE 02:10:02 44° ESE 02:24:32 10° E visible
22 Oct 12.5 04:22:45 53° SW 04:28:02 64° S 04:51:12 10° ESE visible
22 Oct 13.3 06:35:28 13° W 06:53:27 46° SSW 07:13:55 10° SE visible
23 Oct 13.9 00:17:11 11° E 00:17:11 11° E 00:18:01 10° E visible
23 Oct 12.8 02:29:55 50° ESE 02:29:55 50° ESE 02:46:11 10° E visible
23 Oct 12.6 04:42:38 46° WSW 04:49:25 61° SSW 05:12:19 10° ESE visible
23 Oct 13.4 06:55:45 10° W 07:14:25 39° SW 07:33:54 10° SSE visible
24 Oct 13.8 00:37:06 15° E 00:37:06 15° E 00:39:53 10° E visible
24 Oct 12.6 02:49:49 56° SE 02:49:49 56° SE 03:07:45 10° ESE visible
24 Oct 12.7 05:02:33 40° WSW 05:10:43 56° SSW 05:33:14 10° SE visible
25 Oct 13.7 00:57:03 19° E 00:57:03 19° E 01:01:39 10° E visible
25 Oct 12.5 03:09:46 60° SSE 03:09:46 60° SSE 03:29:14 10° ESE visible
25 Oct 12.8 05:22:30 33° WSW 05:31:58 51° SSW 05:53:53 10° SE visible
